Regional Weather Roundup
Issued by NWS

Home | Current Version | Previous Version | Graphics & Text | Print | Product List | Glossary On
Versions: 1 2 3 4 5 6 7 8 9 10 11 12 13 14 15 16 17 18 19 20 21 22 23 24 25 26 27 28 29 30 31 32 33 34 35 36 37 38 39 40 41 42 43 44 45 46 47 48 49 50
000
ASUS43 KLSX 250007
RWRMO

WEATHER SUMMARY FOR MISSOURI
NATIONAL WEATHER SERVICE SPRINGFIELD MO
700 PM CDT THU JUL 24 2014

NOTE: "FAIR" INDICATES FEW OR NO CLOUDS BELOW 12,000 FEET WITH NO
       SIGNIFICANT WEATHER AND/OR OBSTRUCTIONS TO VISIBILITY.
       CURRENT SKY AND/OR WEATHER CONDITIONS ARE NOT AVAILABLE FOR
       CHILLICOTHE AND FARMINGTON.

MOZ001>031-035>038-043-044-053-054-250100-
...NORTHERN AND WESTERN MISSOURI...

CITY           SKY/WX    TMP DP  RH WIND       PRES   REMARKS
KANSAS CTY INT MOSUNNY   80  58  46 SE14      30.02F
6HR MIN TEMP:  79; 6HR MAX TEMP:  82;

KANSAS C DTWN  SUNNY     82  59  45 SE12      30.00F
6HR MIN TEMP:  81; 6HR MAX TEMP:  84;

LEE`S SUMMIT   SUNNY     80  57  45 SE7       30.04S
6HR MIN TEMP:  78; 6HR MAX TEMP:  82;

ST JOSEPH      SUNNY     79  62  56 SE10G20   30.00F
6HR MIN TEMP:  79; 6HR MAX TEMP:  83;

CHILLICOTHE      N/A     79  60  52 SE5       30.03F
6HR MIN TEMP:  78; 6HR MAX TEMP:  82;

KIRKSVILLE     PTSUNNY   76  60  57 VRB3      30.08F
6HR MIN TEMP:  75; 6HR MAX TEMP:  81;


$$
MOZ066>068-077>081-088>096-101>105-250100-
...SOUTHWEST MISSOURI...

CITY           SKY/WX    TMP DP  RH WIND       PRES   REMARKS
SPRINGFIELD    SUNNY     82  57  42 SE5       30.03F
6HR MIN TEMP:  79; 6HR MAX TEMP:  84;

JOPLIN         SUNNY     86  62  44 S9        30.00F
6HR MIN TEMP:  84; 6HR MAX TEMP:  89;


$$
MOZ032>034-039>042-045>050-055>058-069>072-250100-
...CENTRAL MISSOURI...

CITY           SKY/WX    TMP DP  RH WIND       PRES   REMARKS
COLUMBIA       SUNNY     80  55  42 E8        30.07S
6HR MIN TEMP:  78; 6HR MAX TEMP:  82;

JEFFERSON CITY SUNNY     80  54  40 E6        30.05R
6HR MIN TEMP:  78; 6HR MAX TEMP:  83;

ROLLA          SUNNY     79  51  37 E6        30.06R
6HR MIN TEMP:  78; 6HR MAX TEMP:  83;

SEDALIA        SUNNY     81  57  43 E9        30.06R
6HR MIN TEMP:  80; 6HR MAX TEMP:  83;

WHITEMAN AFB   SUNNY     81  45  27 E5        30.03F
OSAGE BEACH    SUNNY     81  55  41 N6        30.06R

$$
MOZ051-052-059>065-250100-
...EAST CENTRAL MISSOURI...

CITY           SKY/WX    TMP DP  RH WIND       PRES   REMARKS
ST LOUIS INTL  PTSUNNY   79  52  38 CALM      30.06S
6HR MIN TEMP:  78; 6HR MAX TEMP:  82;

SPIRIT OF STL  MOSUNNY   79  50  36 NE6       30.05R
6HR MIN TEMP:  78; 6HR MAX TEMP:  82;

ST CHARLES     MOSUNNY   77  53  43 NE6       30.06R
6HR MIN TEMP:  77; 6HR MAX TEMP:  81;


$$
MOZ072>076-082>087-097>100-106>115-250100-
...SOUTH CENTRAL AND SOUTHEAST MISSOURI...

CITY           SKY/WX    TMP DP  RH WIND       PRES   REMARKS
CAPE GIRARDEAU SUNNY     78  60  53 NE9       30.02S
6HR MIN TEMP:  76; 6HR MAX TEMP:  81;

FARMINGTON     PTSUNNY   75  55  50 NE5       30.08R
6HR MIN TEMP:  73; 6HR MAX TEMP:  79;

POPLAR BLUFF   MOSUNNY   79  59  50 NE3       30.02R
6HR MIN TEMP:  79; 6HR MAX TEMP:  82;

WEST PLAINS    SUNNY     79  58  48 E6        30.06S
6HR MIN TEMP:  77; 6HR MAX TEMP:  82;


$$



USA.gov is the U.S. government's official web portal to all federal, state and local government web resources and services.